FW7499 Weather Reports


time (UTC)temp
C
wind
direction
speed
KPH
gust
KPH
rain 1hr
cm
rain 24hr
cm
rain mn
cm
humidity
%
barometer
mb
20260831225512 29 196 0.0 3.2 0.00 0.00 0.00 70 1013.4
20260831225012 30 196 0.0 3.2 0.00 0.00 0.00 65 1013.4
20260831224508 30 196 0.0 3.2 0.00 0.00 0.00 67 1013.6
20260831224014 30 173 0.0 3.2 0.00 0.00 0.00 66 1013.4
20260831223512 31 170 0.0 3.2 0.00 0.00 0.00 66 1013.5
20260831223010 31 177 0.0 3.2 0.00 0.00 0.00 64 1013.5
20260831222508 30 188 0.0 3.2 0.00 0.00 0.00 64 1013.5
20260831222012 31 186 0.0 4.8 0.00 0.00 0.00 62 1013.5
20260831221535 31 286 1.6 3.2 0.00 0.00 0.00 61 1013.5
20260831221007 31 202 0.0 3.2 0.00 0.00 0.00 63 1013.5
20260831220509 30 180 0.0 3.2 0.00 0.00 0.00 64 1013.5
20260831220015 30 281 0.0 3.2 0.00 0.00 0.00 65 1013.6
20260831215511 30 38 0.0 3.2 0.00 0.00 0.00 69 1013.5
20260831215010 30 83 1.6 3.2 0.00 0.00 0.00 62 1013.5
20260831214539 31 255 0.0 3.2 0.00 0.00 0.00 62 1013.6
20260831214012 31 298 0.0 4.8 0.00 0.00 0.00 66 1013.6
20260831213514 31 153 1.6 4.8 0.00 0.00 0.00 62 1013.7
20260831213017 31 334 0.0 8.0 0.00 0.00 0.00 60 1013.8
20260831212510 31 313 0.0 9.7 0.00 0.00 0.00 64 1013.8
20260831212014 31 277 3.2 9.7 0.00 0.00 0.00 61 1013.7
20260831211514 31 188 0.0 6.4 0.00 0.00 0.00 63 1013.7
20260831211017 31 317 1.6 6.4 0.00 0.00 0.00 1013.7
20260831210516 31 352 3.2 6.4 0.00 0.00 0.00 62 1013.8
20260831210012 32 350 1.6 9.7 0.00 0.00 0.00 62 1013.8
20260831205511 31 249 4.8 9.7 0.00 0.00 0.00 64 1013.7
20260831205016 31 252 3.2 6.4 0.00 0.00 0.00 60 1013.7
20260831204516 31 314 3.2 6.4 0.00 0.00 0.00 61 1013.8
20260831204013 31 337 1.6 6.4 0.00 0.00 0.00 62 1013.8
20260831203518 31 342 1.6 6.4 0.00 0.00 0.00 59 1013.9
20260831203024 31 315 1.6 6.4 0.00 0.00 0.00 62 1014.0
20260831202514 31 268 1.6 6.4 0.00 0.00 0.00 61 1014.0
20260831202012 31 267 0.0 6.4 0.00 0.00 0.00 63 1014.0
20260831201534 31 180 1.6 12.9 0.00 0.00 0.00 61 1014.0
20260831201015 31 265 3.2 12.9 0.00 0.00 0.00 61 1014.1
20260831200507 31 297 1.6 6.4 0.00 0.00 0.00 60 1014.1
20260831200036 31 252 1.6 6.4 0.00 0.00 0.00 60 1014.0
20260831195512 31 254 3.2 8.0 0.00 0.00 0.00 59 1014.0
20260831195017 31 259 3.2 11.3 0.00 0.00 0.00 58 1014.0
20260831194514 32 325 1.6 9.7 0.00 0.00 0.00 60 1014.0
20260831194013 31 143 0.0 4.8 0.00 0.00 0.00 62 1014.1
20260831193510 31 331 1.6 4.8 0.00 0.00 0.00 61 1014.1
20260831193022 31 248 1.6 4.8 0.00 0.00 0.00 60 1014.0
20260831192514 31 242 1.6 8.0 0.00 0.00 0.00 62 1014.0
20260831192014 31 263 0.0 9.7 0.00 0.00 0.00 60 1013.9
20260831191528 31 257 3.2 9.7 0.00 0.00 0.00 59 1013.9
20260831191015 32 295 1.6 4.8 0.00 0.00 0.00 60 1013.9
20260831190515 32 337 1.6 3.2 0.00 0.00 0.00 62 1013.9
20260831190024 30 247 1.6 3.2 0.00 0.00 0.00 62 1013.9
20260831185516 30 360 1.6 3.2 0.00 0.00 0.00 62 1013.9
20260831185013 31 291 1.6 6.4 0.00 0.00 0.00 62 1014.0
20260831184521 31 167 0.0 6.4 0.00 0.00 0.00 63 1014.0
20260831184016 31 312 1.6 4.8 0.00 0.00 0.00 61 1014.0
20260831183511 31 321 1.6 4.8 0.00 0.00 0.00 60 1013.9
20260831183030 31 257 1.6 4.8 0.00 0.00 0.00 64 1013.9
20260831182515 31 19 3.2 4.8 0.00 0.00 0.00 61 1013.9
20260831182014 31 85 1.6 6.4 0.00 0.00 0.00 58 1013.9
20260831181524 31 351 1.6 6.4 0.00 0.00 0.00 60 1014.0
20260831181013 31 350 3.2 6.4 0.00 0.00 0.00 61 1013.9
20260831180509 31 330 1.6 4.8 0.00 0.00 0.00 63 1013.9
20260831180031 31 352 0.0 3.2 0.00 0.00 0.00 64 1014.0
20260831175513 30 9 0.0 4.8 0.00 0.00 0.00 61 1013.9
20260831175014 31 9 1.6 6.4 0.00 0.00 0.00 65 1014.0
20260831174529 30 23 1.6 6.4 0.00 0.00 0.00 63 1014.0
20260831174014 30 294 1.6 4.8 0.00 0.00 0.00 65 1014.0
20260831173515 28 170 1.6 4.8 0.00 0.00 0.00 66 1014.0
20260831173034 29 343 0.0 4.8 0.00 0.00 0.00 70 1013.9
20260831172517 29 350 1.6 4.8 0.00 0.00 0.00 66 1014.0
20260831172005 28 344 1.6 6.4 0.00 0.00 0.00 69 1014.0
20260831171508 29 5 3.2 6.4 0.00 0.00 0.00 66 1013.9
20260831171007 28 9 1.6 4.8 0.00 0.00 0.00 65 1013.9
20260831170503 29 15 1.6 4.8 0.00 0.00 0.00 67 1013.9
20260831170006 28 334 0.0 4.8 0.00 0.00 0.00 67 1013.8
20260831165504 29 14 1.6 6.4 0.00 0.00 0.00 67 1013.8
20260831165003 28 338 1.6 6.4 0.00 0.00 0.00 66 1013.8
20260831164507 29 360 3.2 6.4 0.00 0.00 0.00 66 1013.8
20260831164007 29 352 1.6 6.4 0.00 0.00 0.00 69 1013.7
20260831163508 28 344 3.2 6.4 0.00 0.00 0.00 68 1013.7
20260831163033 28 350 1.6 4.8 0.00 0.00 0.00 68 1013.7
20260831162502 27 331 1.6 4.8 0.00 0.00 0.00 69 1013.7
20260831162007 27 322 1.6 3.2 0.00 0.00 0.00 70 1013.7
20260831161514 27 360 3.2 4.8 0.00 0.00 0.00 69 1013.6
20260831161003 27 333 1.6 4.8 0.00 0.00 0.00 69 1013.5
20260831160507 27 316 1.6 6.4 0.00 0.00 0.00 70 1013.4
20260831160013 27 313 1.6 6.4 0.00 0.00 0.00 69 1013.4
20260831155515 27 328 1.6 6.4 0.00 0.00 0.00 71 1013.2
20260831155003 27 308 1.6 4.8 0.00 0.00 0.00 71 1013.0
20260831154521 27 321 0.0 6.4 0.00 0.00 0.00 72 1013.0
20260831154007 27 324 3.2 6.4 0.00 0.00 0.00 70 1013.0
20260831153505 27 360 1.6 6.4 0.00 0.00 0.00 71 1012.8
20260831153004 27 336 0.0 6.4 0.00 0.00 0.00 70 1013.0
20260831152512 27 325 1.6 6.4 0.00 0.00 0.00 73 1013.1
20260831152008 26 321 1.6 4.8 0.00 0.00 0.00 75 1013.1
20260831151521 26 360 1.6 3.2 0.00 0.00 0.00 78 1012.9
20260831151005 25 360 1.6 3.2 0.00 0.00 0.00 78 1013.0
20260831150508 25 360 0.0 3.2 0.00 0.00 0.00 79 1013.0
20260831150027 25 360 0.0 4.8 0.00 0.00 0.00 79 1013.0
20260831145505 25 360 1.6 4.8 0.00 0.00 0.00 80 1013.1
20260831145003 25 342 1.6 3.2 0.00 0.00 0.00 80 1013.2
20260831144524 25 88 0.0 3.2 0.00 0.00 0.00 81 1012.8
20260831144008 25 88 0.0 3.2 0.00 0.00 0.00 81 1012.6
20260831143506 25 342 1.6 3.2 0.00 0.00 0.00 80 1012.6
20260831143007 25 327 0.0 3.2 0.00 0.00 0.00 83 1012.7
20260831142506 25 327 0.0 3.2 0.00 0.00 0.00 81 1012.7
20260831142006 25 327 0.0 3.2 0.00 0.00 0.00 82 1012.6
20260831141514 25 327 0.0 3.2 0.00 0.00 0.00 81 1013.0
20260831141004 24 327 1.6 3.2 0.00 0.00 0.00 81 1012.8
20260831140511 24 300 0.0 3.2 0.00 0.00 0.00 80 1012.7
20260831140022 24 9 0.0 4.8 0.00 0.00 0.00 81 1012.4
20260831135505 24 313 0.0 4.8 0.00 0.00 0.00 82 1012.6
20260831135003 24 360 1.6 4.8 0.00 0.00 0.00 81 1012.1
20260831134506 24 274 0.0 4.8 0.00 0.00 0.00 81 1012.0
20260831134003 24 329 1.6 8.0 0.00 0.00 0.00 81 1012.6
20260831133503 24 327 3.2 8.0 0.00 0.00 0.00 81 1012.8
20260831133004 24 343 1.6 4.8 0.00 0.00 0.00 81 1013.0
20260831132507 24 344 1.6 6.4 0.00 0.00 0.00 82 1012.8
20260831132008 24 246 3.2 6.4 0.00 0.00 0.00 81 1012.8
20260831131506 24 34 3.2 6.4 0.00 0.00 0.00 83 1012.9
20260831131008 24 338 0.0 4.8 0.00 0.00 0.00 84 1012.7
20260831130507 24 338 0.0 4.8 0.00 0.00 0.00 83 1012.8
20260831130004 24 360 1.6 4.8 0.00 0.00 0.00 83 1012.7
20260831125504 24 185 1.6 4.8 0.00 0.00 0.00 82 1012.8
20260831125004 24 240 1.6 6.4 0.00 0.00 0.00 83 1012.7
20260831124518 24 259 1.6 6.4 0.00 0.00 0.00 84 1012.8
20260831124003 24 296 0.0 3.2 0.00 0.00 0.00 85 1012.7
20260831123503 23 295 0.0 3.2 0.00 0.00 0.00 86 1012.6
20260831123005 23 286 0.0 3.2 0.00 0.00 0.00 87 1012.2
20260831122505 23 286 0.0 3.2 0.00 0.00 0.00 87 1012.3
20260831122003 23 286 0.0 3.2 0.00 0.00 0.00 88 1012.3
20260831121509 23 286 0.0 1.6 0.00 0.00 0.00 90 1012.1
20260831121008 22 286 0.0 3.2 0.00 0.00 0.00 90 1011.9
20260831120505 23 286 0.0 3.2 0.00 0.00 0.00 90 1011.7
20260831120009 22 286 1.6 3.2 0.00 0.00 0.00 90 1011.7
20260831115506 22 257 0.0 3.2 0.00 0.00 0.00 91 1011.8
20260831115011 22 257 0.0 3.2 0.00 0.00 0.00 91 1011.5
20260831114508 22 257 0.0 1.6 0.00 0.00 0.00 91 1011.2
20260831114006 22 257 0.0 1.6 0.00 0.00 0.00 91 1011.4
20260831113514 22 258 0.0 3.2 0.00 0.00 0.00 90 1011.2
20260831113012 22 257 0.0 3.2 0.00 0.00 0.00 90 1011.2
20260831112506 23 258 0.0 3.2 0.00 0.00 0.00 90 1011.0
20260831112003 23 257 0.0 3.2 0.00 0.00 0.00 90 1011.0
20260831111513 23 257 0.0 3.2 0.00 0.00 0.00 90 1010.9
20260831111003 23 258 0.0 0.0 0.00 0.00 0.00 90 1010.8
20260831110506 23 257 0.0 0.0 0.00 0.00 0.00 90 1010.8
20260831110006 23 257 0.0 0.0 0.00 0.00 0.00 90 1010.8
20260831105510 23 258 0.0 0.0 0.00 0.00 0.00 89 1010.8
20260831105006 23 257 0.0 3.2 0.00 0.00 0.00 89 1010.9
20260831104522 23 257 0.0 3.2 0.00 0.00 0.00 89 1010.8
20260831104010 23 257 0.0 3.2 0.00 0.00 0.00 90 1010.8
20260831103505 23 258 0.0 3.2 0.00 0.00 0.00 89 1010.8
20260831103017 23 257 0.0 3.2 0.00 0.00 0.00 89 1010.8
20260831102511 23 257 0.0 0.0 0.00 0.00 0.00 90 1010.7
20260831102005 23 257 0.0 1.6 0.00 0.00 0.00 90 1010.7
20260831101507 23 258 0.0 3.2 0.00 0.00 0.00 90 1010.7
20260831101006 23 258 0.0 3.2 0.00 0.00 0.00 90 1010.5
20260831100504 23 258 0.0 0.0 0.00 0.00 0.00 90 1010.6
20260831100006 23 257 0.0 0.0 0.00 0.00 0.00 90 1010.6
20260831095503 23 257 0.0 0.0 0.00 0.00 0.00 90 1010.4
20260831095011 23 258 0.0 0.0 0.00 0.00 0.00 90 1010.4
20260831094516 22 257 0.0 0.0 0.00 0.00 0.00 91 1010.5
20260831094004 23 257 0.0 3.2 0.00 0.00 0.00 90 1010.3
20260831093511 23 258 0.0 3.2 0.00 0.00 0.00 90 1010.2
20260831093013 23 257 0.0 3.2 0.00 0.00 0.00 90 1010.1
20260831092513 23 258 0.0 3.2 0.00 0.00 0.00 90 1010.1
20260831092007 23 258 0.0 3.2 0.00 0.00 0.00 90 1010.1
20260831091507 23 258 0.0 0.0 0.00 0.00 0.00 90 1010.1
20260831091016 23 258 0.0 0.0 0.00 0.00 0.00 89 1010.1
20260831090508 23 257 0.0 0.0 0.00 0.00 0.00 89 1010.1
20260831090009 23 258 0.0 0.0 0.00 0.00 0.00 89 1010.1
20260831085509 23 257 0.0 0.0 0.00 0.00 0.00 89 1010.0
20260831085010 23 257 0.0 0.0 0.00 0.00 0.00 89 1010.0
20260831084518 23 257 0.0 3.2 0.00 0.00 0.00 88 1009.9
20260831084011 23 257 0.0 3.2 0.00 0.00 0.00 87 1009.9
20260831083507 23 257 0.0 3.2 0.00 0.00 0.00 88 1009.8
20260831083008 23 257 0.0 3.2 0.00 0.00 0.00 88 1009.7
20260831082513 23 257 0.0 1.6 0.00 0.00 0.00 88 1009.7
20260831082013 23 257 0.0 0.0 0.00 0.00 0.00 88 1009.7
20260831081524 23 258 0.0 3.2 0.00 0.00 0.00 88 1009.6
20260831081013 23 257 0.0 3.2 0.00 0.00 0.00 88 1009.6
20260831080512 23 257 0.0 0.0 0.00 0.00 0.00 88 1009.8
20260831080033 23 258 0.0 0.0 0.00 0.00 0.00 87 1009.7
20260831075507 24 257 0.0 0.0 0.00 0.00 0.00 86 1009.7
20260831075012 24 257 0.0 3.2 0.00 0.00 0.00 86 1009.7
20260831074510 24 258 0.0 3.2 0.00 0.00 0.00 86 1009.5
20260831074007 24 257 0.0 3.2 0.00 0.00 0.00 87 1009.6
20260831073508 24 352 0.0 1.6 0.00 0.00 0.00 87 1009.7
20260831073015 24 352 0.0 1.6 0.00 0.00 0.00 87 1009.8
20260831072516 24 352 0.0 1.6 0.00 0.00 0.00 87 1009.9
20260831072006 24 352 0.0 3.2 0.00 0.00 0.00 87 1009.9
20260831071544 24 352 0.0 3.2 0.00 0.00 0.00 87 1009.9
20260831071014 24 352 0.0 0.0 0.00 0.00 0.00 87 1009.8
20260831070512 24 352 0.0 0.0 0.00 0.00 0.00 87 1009.9
20260831070015 24 352 0.0 0.0 0.00 0.00 0.00 86 1009.9
20260831065514 24 352 0.0 0.0 0.00 0.00 0.00 86 1010.0
20260831065010 24 352 0.0 0.0 0.00 0.00 0.00 87 1010.0
20260831064532 24 352 0.0 0.0 0.00 0.00 0.00 87 1010.0
20260831064010 24 352 0.0 0.0 0.00 0.00 0.00 87 1010.0
20260831063510 24 352 0.0 0.0 0.00 0.00 0.00 86 1010.0
20260831063006 24 352 0.0 0.0 0.00 0.00 0.00 86 1010.0
20260831062508 25 352 0.0 0.0 0.00 0.00 0.00 86 1010.0
20260831062008 25 352 0.0 0.0 0.00 0.00 0.00 85 1010.0
20260831061504 25 352 0.0 3.2 0.00 0.00 0.00 85 1010.0
20260831061010 25 352 0.0 3.2 0.00 0.00 0.00 84 1009.8
20260831060505 25 352 0.0 3.2 0.00 0.00 0.00 84 1009.8
20260831060026 25 352 0.0 3.2 0.00 0.00 0.00 84 1009.8
20260831055507 25 352 0.0 1.6 0.00 0.00 0.00 84 1009.7
20260831055003 25 352 0.0 3.2 0.00 0.00 0.00 84 1009.8
20260831054507 25 352 0.0 3.2 0.00 0.00 0.00 84 1009.7
20260831054011 25 352 0.0 3.2 0.00 0.00 0.00 84 1009.6
20260831053506 25 352 1.6 3.2 0.00 0.00 0.00 85 1009.6
20260831053024 25 352 0.0 3.2 0.00 0.00 0.00 84 1009.6
20260831052507 25 352 0.0 3.2 0.00 0.00 0.00 84 1009.6
20260831052008 25 352 0.0 3.2 0.00 0.00 0.00 85 1009.4
20260831051515 25 352 0.0 4.8 0.00 0.00 0.00 85 1009.4
20260831051013 25 352 3.2 4.8 0.00 0.00 0.00 84 1009.4
20260831050512 25 286 0.0 3.2 0.00 0.00 0.00 83 1009.3
20260831050023 25 286 0.0 1.6 0.00 0.00 0.00 83 1009.3
20260831045514 25 286 0.0 0.0 0.00 0.00 0.00 83 1009.3
20260831045012 25 286 0.0 0.0 0.00 0.00 0.00 83 1009.3
20260831044509 25 286 0.0 0.0 0.00 0.00 0.00 82 1009.3
20260831044008 25 286 0.0 0.0 0.00 0.00 0.00 83 1009.3
20260831043504 25 286 0.0 0.0 0.00 0.00 0.00 83 1009.3
20260831043010 25 286 0.0 0.0 0.00 0.00 0.00 83 1009.3
20260831042509 25 286 0.0 0.0 0.00 0.00 0.00 83 1009.4
20260831042008 25 286 0.0 0.0 0.00 0.00 0.00 83 1009.3
20260831041513 25 286 0.0 0.0 0.00 0.00 0.00 83 1009.4
20260831041007 25 286 0.0 0.0 0.00 0.00 0.00 83 1009.4
20260831040509 25 286 0.0 0.0 0.00 0.00 0.00 82 1009.4
20260831040026 25 286 0.0 0.0 0.00 0.00 0.00 82 1009.5
20260831035515 25 286 0.0 0.0 0.00 0.00 0.00 82 1009.5
20260831035009 25 286 0.0 3.2 0.00 0.00 0.00 82 1009.6
20260831034523 25 286 0.0 3.2 0.00 0.00 0.00 81 1009.6
20260831034009 26 286 0.0 3.2 0.00 0.00 0.00 81 1009.7
20260831033517 26 286 0.0 3.2 0.00 0.00 0.00 80 1009.7
20260831033017 26 286 0.0 0.0 0.00 0.00 0.00 79 1009.7
20260831032510 26 286 0.0 0.0 0.00 0.00 0.00 79 1009.6
20260831032008 26 286 0.0 0.0 0.00 0.00 0.00 79 1009.6
20260831031513 26 286 0.0 0.0 0.00 0.00 0.00 78 1009.7
20260831031011 26 286 0.0 0.0 0.00 0.00 0.00 79 1009.8
20260831030513 26 286 0.0 0.0 0.00 0.00 0.00 79 1009.8
20260831030016 26 286 0.0 0.0 0.00 0.00 0.00 79 1009.9
20260831025510 26 286 0.0 0.0 0.00 0.00 0.00 79 1009.9
20260831025012 26 286 0.0 0.0 0.00 0.00 0.00 78 1009.9
20260831024515 26 286 0.0 0.0 0.00 0.00 0.00 77 1009.8
20260831024011 27 286 0.0 0.0 0.00 0.00 0.00 76 1009.8
20260831023513 27 286 0.0 0.0 0.00 0.00 0.00 77 1009.7
20260831023027 27 286 0.0 0.0 0.00 0.00 0.00 77 1009.7
20260831022515 27 286 0.0 0.0 0.00 0.00 0.00 76 1009.6
20260831022011 27 286 0.0 0.0 0.00 0.00 0.00 77 1009.6
20260831021529 27 286 0.0 0.0 0.00 0.00 0.00 76 1009.6
20260831021012 27 286 0.0 0.0 0.00 0.00 0.00 77 1009.5
20260831020510 27 286 0.0 0.0 0.00 0.00 0.00 77 1009.5
20260831020022 27 286 0.0 0.0 0.00 0.00 0.00 76 1009.5
20260831015512 27 286 0.0 0.0 0.00 0.00 0.00 76 1009.4
20260831015013 27 286 0.0 0.0 0.00 0.00 0.00 75 1009.3
20260831014525 27 286 0.0 0.0 0.00 0.00 0.00 73 1009.3
20260831014011 27 286 0.0 0.0 0.00 0.00 0.00 73 1009.1
20260831013514 28 286 0.0 0.0 0.00 0.00 0.00 72 1009.1
20260831013023 28 286 0.0 0.0 0.00 0.00 0.00 72 1009.2
20260831012509 28 286 0.0 0.0 0.00 0.00 0.00 72 1009.1
20260831012017 28 286 0.0 0.0 0.00 0.00 0.00 71 1009.1
20260831011526 28 286 0.0 0.0 0.00 0.00 0.00 71 1009.1
20260831011018 28 286 0.0 0.0 0.00 0.00 0.00 71 1009.1
20260831010517 28 286 0.0 0.0 0.00 0.00 0.00 71 1009.1
20260831010018 28 286 0.0 0.0 0.00 0.00 0.00 71 1009.0
20260831005513 28 286 0.0 0.0 0.00 0.00 0.00 70 1009.0
20260831005015 28 286 0.0 0.0 0.00 0.00 0.00 70 1008.9
20260831004518 28 286 0.0 0.0 0.00 0.00 0.00 69 1009.0
20260831004018 28 286 0.0 0.0 0.00 0.00 0.00 69 1009.0
20260831003509 29 286 0.0 0.0 0.00 0.00 0.00 69 1009.0
20260831003034 29 286 0.0 0.0 0.00 0.00 0.00 68 1009.0
20260831002514 30 286 0.0 0.0 0.00 0.00 0.00 67 1009.0
20260831002011 30 286 0.0 0.0 0.00 0.00 0.00 66 1009.0
20260831001521 30 286 0.0 3.2 0.00 0.00 0.00 65 1009.0
20260831001015 30 286 0.0 3.2 0.00 0.00 0.00 65 1009.0
20260831000518 30 298 0.0 3.2 0.00 0.00 0.00 64 1009.0
20260831000034 30 298 0.0 3.2 0.00 0.00 0.00 63 1009.0
20260830235513 31 306 1.6 3.2 0.00 0.00 0.00 64 1009.0
20260830235014 31 277 0.0 3.2 0.00 0.00 0.00 61 1009.0
20260830234527 31 277 0.0 6.4 0.00 0.00 0.00 62 1009.0
20260830234011 31 242 1.6 6.4 0.00 0.00 0.00 60 1009.0
20260830233514 31 165 0.0 3.2 0.00 0.00 0.00 62 1009.0
20260830233024 31 156 0.0 3.2 0.00 0.00 0.00 61 1008.9
20260830232511 32 157 0.0 3.2 0.00 0.00 0.00 60 1008.9
20260830232014 32 156 0.0 3.2 0.00 0.00 0.00 59 1008.9
20260830231524 32 323 1.6 3.2 0.00 0.00 0.00 56 1008.9
20260830231009 32 185 0.0 4.8 0.00 0.00 0.00 57 1008.8
20260830230512 32 241 1.6 4.8 0.00 0.00 0.00 58 1008.8
20260830230008 32 182 1.6 6.4 0.00 0.00 0.00 58 1008.7